SCP
0 0 1 1 1 1 1 1 1 1 1 1 0 0 0 0 0 0 0 0 0 0 0 0 0 0 0 0 0 0 0 0
0 1 2 3 2 1 1 1 1 1 1 1 0 0 0 0 0 0 0 0 0 0 0 0 0 0 0 0 0 0 1 0
0 0 1 2 1 1 1 1 1 0 0 0 0 0 0 0 0 0 0 0 0 0 0 0 0 0 0 0 0 0 0 0
0 0 0 0 0 1 1 1 1 0 0 0 0 0 0 0 0 0 0 0 0 0 0 0 0 0 0 0 0 0 0 0
0 0 0 0 0 0 0 0 0 0 0 0 0 0 0 0 0 0 0 0 0 0 0 0 0 0 0 0 0 0 0 0
0 0 0 0 0 0 0 0 0 0 0 0 0 0 0 0 0 0 0 0 0 0 0 0 0 0 0 0 0 0 0 0
0 0 0 0 0 0 0 0 0 0 0 0 0 0 0 0 0 0 0 0 0 0 0 0 0 0 0 0 0 0 0 0
0 0 0 0 0 0 0 0 0 0 0 0 0 0 0 0 0 0 0 0 0 0 0 0 0 0 0 0 0 0 0 0
0 0 0 0 0 0 0 0 0 0 0 0 0 0 0 0 0 0 0 0 0 0 0 0 0 0 0 0 0 0 0 0
0 0 0 0 0 0 0 0 0 0 0 0 0 0 0 0 0 0 0 0 0 0 0 0 0 0 0 0 0 0 0 0
0 0 0 0 0 0 0 0 0 0 0 0 0 0 0 0 0 0 0 0 0 0 0 0 0 0 0 0 0 0 0 0
0 0 0 0 0 0 0 0 0 0 0 0 0 0 0 0 0 0 0 0 0 0 0 0 0 0 0 0 0 0 0 0
0 0 0 0 0 0 0 0 0 0 0 0 0 0 0 0 0 -0 0 0 0 0 0 -0 0 0 0 0 0 0 0 0
0 0 0 0 0 0 0 0 0 0 0 0 0 0 0 0 -0 -0 0 0 0 0 -0 -0 0 0 0 0 0 0 0 0
0 0 0 0 0 0 0 0 0 0 0 0 0 0 0 0 -0 -0 0 0 -0 -0 -0 0 0 0 0 0 0 0 0 0
0 0 0 0 0 0 0 0 0 0 0 0 0 0 0 0 0 -0 -0 0 -0 0 0 0 0 0 0 0 0 0 0 0
0 0 0 0 0 0 0 0 0 0 0 0 0 0 0 0 0 -0 -0 0 0 -0 -0 0 0 0 0 0 0 0 0 0
0 0 0 0 0 0 0 0 0 0 0 0 0 0 0 0 0 0 0 -0 0 -0 -0 0 0 0 0 0 0 0 0 0
0 0 0 0 0 0 0 0 0 0 0 0 0 0 0 0 0 -0 0 0 -0 0 0 0 0 0 0 0 0 0 0 0
Wind_Speed_500mb
14 13 21 16 15 23 32 34 35 32 34 38 42 41 42 40 37 39 43 42 42 39 38 37 32 31 30 29 30 28 30 31
20 13 18 19 27 33 36 37 35 37 42 48 47 46 42 41 46 45 45 46 45 41 41 39 40 34 33 35 33 34 34 32
30 30 31 32 31 31 31 31 34 30 32 38 42 48 50 51 49 48 49 52 53 51 45 43 44 38 40 41 38 36 35 34
29 27 24 27 29 27 22 27 28 32 37 39 44 47 50 52 53 53 53 55 55 52 47 42 47 42 40 43 44 35 36 36
11 16 21 18 17 19 26 29 35 35 33 43 39 41 37 42 42 39 36 35 38 41 43 44 46 44 39 47 42 37 37 37
18 19 16 18 25 29 32 38 28 34 40 42 48 44 53 43 34 27 25 24 28 29 36 43 43 46 40 45 46 39 36 40
26 31 26 22 32 40 39 26 19 21 36 44 46 49 40 31 26 25 25 28 30 28 34 39 40 43 40 44 46 37 33 38
42 36 29 32 37 39 34 25 31 27 32 41 46 44 29 26 20 15 14 18 28 31 27 35 40 42 42 38 39 34 31 33
31 27 28 33 35 36 29 27 19 24 31 43 51 36 27 23 22 17 17 20 25 26 31 34 41 42 37 31 35 29 26 35
28 26 29 32 32 27 24 20 21 24 28 36 31 28 31 28 26 23 22 23 25 26 26 32 41 42 35 29 41 31 27 42
29 27 30 29 27 23 23 22 26 28 31 34 31 31 33 31 29 26 21 23 23 30 29 30 41 39 39 38 43 33 34 40
36 32 26 20 20 24 27 28 31 34 34 36 29 29 32 33 34 30 23 21 18 29 37 31 34 37 38 41 40 40 40 42
36 27 22 17 19 23 23 21 25 34 35 32 27 26 29 32 35 30 23 21 16 26 42 35 41 39 40 39 46 44 41 35
29 25 24 19 18 15 16 17 25 28 32 24 27 24 23 23 26 28 21 17 15 19 38 40 46 44 44 42 43 40 47 38
23 22 21 17 13 15 10 17 27 31 25 21 27 30 24 21 20 27 18 13 12 15 30 41 41 47 34 32 36 35 50 35
23 20 15 9 14 13 10 16 24 24 23 28 29 30 31 15 16 23 17 15 16 19 32 36 41 40 35 41 42 37 28 28
23 19 12 12 11 15 7 15 23 30 31 27 27 26 23 14 13 24 15 13 18 20 29 36 40 35 38 44 48 51 24 30
25 19 15 13 16 4 4 11 19 27 24 23 15 22 17 6 7 17 15 20 24 24 27 28 37 36 42 44 41 31 22 20
24 18 18 20 11 6 9 15 23 24 34 27 14 18 12 9 9 16 25 25 19 21 27 29 35 36 39 41 39 25 29 54
Wind_Direction_500mb
246 248 237 247 250 286 292 292 290 280 272 271 274 278 279 276 274 272 272 273 272 267 267 266 262 249 243 234 233 230 232 230
221 216 245 261 282 296 301 298 294 281 273 271 275 275 274 269 271 269 267 270 270 263 264 256 256 245 236 231 233 227 223 225
217 230 248 263 281 295 297 298 304 298 289 283 283 280 276 273 271 272 272 269 266 262 259 257 247 245 234 230 230 227 224 223
218 253 267 266 286 300 287 294 295 302 299 297 293 284 275 272 272 274 272 269 264 259 255 250 242 236 233 227 230 231 224 222
290 247 265 264 281 261 275 289 298 301 295 303 300 303 297 283 279 272 264 263 261 256 247 241 237 229 233 225 228 229 225 219
229 227 221 231 252 271 286 299 290 290 300 302 304 317 304 295 290 276 259 257 261 259 242 235 231 227 231 224 224 225 223 215
202 185 203 237 270 286 299 279 289 294 294 293 295 299 301 294 292 283 261 245 259 260 241 229 225 220 226 222 218 219 220 211
205 205 228 257 280 301 314 294 262 267 289 284 289 303 300 308 292 284 253 251 255 252 241 228 217 214 220 222 211 212 218 206
212 228 245 283 297 311 316 314 287 267 274 283 292 292 300 302 304 277 281 276 270 251 244 228 215 214 218 219 200 201 209 194
209 231 263 286 300 318 319 330 325 301 296 294 293 284 283 292 310 284 283 275 268 244 235 224 214 216 210 211 192 198 203 184
222 244 267 282 313 320 323 324 327 327 319 317 298 279 279 276 293 291 286 278 256 236 224 217 219 214 199 191 191 191 199 194
235 257 271 294 313 316 319 324 318 317 320 323 303 286 278 275 272 288 282 277 259 232 222 212 211 201 204 192 189 200 200 199
225 250 262 283 272 285 303 314 326 314 318 331 327 299 292 272 264 269 271 275 268 242 221 210 200 195 202 199 197 201 200 198
210 225 246 272 286 284 303 332 326 316 321 330 336 327 299 278 262 251 257 265 278 251 207 208 201 195 197 201 204 216 202 191
214 222 237 262 275 294 311 332 329 329 321 323 341 345 319 275 257 233 240 251 246 210 193 195 199 203 203 195 181 188 195 182
211 217 243 266 291 299 311 325 333 340 324 314 325 335 341 306 246 228 223 228 206 204 191 190 188 192 187 178 173 173 177 179
201 207 219 250 269 299 304 319 327 334 331 314 314 329 327 311 248 209 209 207 183 183 187 184 197 189 190 178 174 163 150 154
195 193 204 221 258 303 322 319 322 323 328 336 306 334 339 331 186 189 181 172 168 181 177 195 191 197 183 182 177 165 142 168
190 186 193 218 259 273 321 315 335 349 341 341 307 332 358 8 149 167 161 156 154 153 170 175 175 189 186 184 183 189 183 168
Wind_Speed_850mb
14 13 21 16 15 23 32 34 35 32 34 38 42 41 42 40 37 39 43 42 42 39 38 37 32 31 30 29 30 28 30 31
20 13 18 19 27 33 36 37 35 37 42 48 47 46 42 41 46 45 45 46 45 41 41 39 40 34 33 35 33 34 34 32
30 30 31 32 31 31 31 31 34 30 32 38 42 48 50 51 49 48 49 52 53 51 45 43 44 38 40 41 38 36 35 34
29 27 24 27 29 27 22 27 28 32 37 39 44 47 50 52 53 53 53 55 55 52 47 42 47 42 40 43 44 35 36 36
11 16 21 18 17 19 26 29 35 35 33 43 39 41 37 42 42 39 36 35 38 41 43 44 46 44 39 47 42 37 37 37
18 19 16 18 25 29 32 38 28 34 40 42 48 44 53 43 34 27 25 24 28 29 36 43 43 46 40 45 46 39 36 40
26 31 26 22 32 40 39 26 19 21 36 44 46 49 40 31 26 25 25 28 30 28 34 39 40 43 40 44 46 37 33 38
42 36 29 32 37 39 34 25 31 27 32 41 46 44 29 26 20 15 14 18 28 31 27 35 40 42 42 38 39 34 31 33
31 27 28 33 35 36 29 27 19 24 31 43 51 36 27 23 22 17 17 20 25 26 31 34 41 42 37 31 35 29 26 35
28 26 29 32 32 27 24 20 21 24 28 36 31 28 31 28 26 23 22 23 25 26 26 32 41 42 35 29 41 31 27 42
29 27 30 29 27 23 23 22 26 28 31 34 31 31 33 31 29 26 21 23 23 30 29 30 41 39 39 38 43 33 34 40
36 32 26 20 20 24 27 28 31 34 34 36 29 29 32 33 34 30 23 21 18 29 37 31 34 37 38 41 40 40 40 42
36 27 22 17 19 23 23 21 25 34 35 32 27 26 29 32 35 30 23 21 16 26 42 35 41 39 40 39 46 44 41 35
29 25 24 19 18 15 16 17 25 28 32 24 27 24 23 23 26 28 21 17 15 19 38 40 46 44 44 42 43 40 47 38
23 22 21 17 13 15 10 17 27 31 25 21 27 30 24 21 20 27 18 13 12 15 30 41 41 47 34 32 36 35 50 35
23 20 15 9 14 13 10 16 24 24 23 28 29 30 31 15 16 23 17 15 16 19 32 36 41 40 35 41 42 37 28 28
23 19 12 12 11 15 7 15 23 30 31 27 27 26 23 14 13 24 15 13 18 20 29 36 40 35 38 44 48 51 24 30
25 19 15 13 16 4 4 11 19 27 24 23 15 22 17 6 7 17 15 20 24 24 27 28 37 36 42 44 41 31 22 20
24 18 18 20 11 6 9 15 23 24 34 27 14 18 12 9 9 16 25 25 19 21 27 29 35 36 39 41 39 25 29 54
Wind_Direction_850mb
246 248 237 247 250 286 292 292 290 280 272 271 274 278 279 276 274 272 272 273 272 267 267 266 262 249 243 234 233 230 232 230
221 216 245 261 282 296 301 298 294 281 273 271 275 275 274 269 271 269 267 270 270 263 264 256 256 245 236 231 233 227 223 225
217 230 248 263 281 295 297 298 304 298 289 283 283 280 276 273 271 272 272 269 266 262 259 257 247 245 234 230 230 227 224 223
218 253 267 266 286 300 287 294 295 302 299 297 293 284 275 272 272 274 272 269 264 259 255 250 242 236 233 227 230 231 224 222
290 247 265 264 281 261 275 289 298 301 295 303 300 303 297 283 279 272 264 263 261 256 247 241 237 229 233 225 228 229 225 219
229 227 221 231 252 271 286 299 290 290 300 302 304 317 304 295 290 276 259 257 261 259 242 235 231 227 231 224 224 225 223 215
202 185 203 237 270 286 299 279 289 294 294 293 295 299 301 294 292 283 261 245 259 260 241 229 225 220 226 222 218 219 220 211
205 205 228 257 280 301 314 294 262 267 289 284 289 303 300 308 292 284 253 251 255 252 241 228 217 214 220 222 211 212 218 206
212 228 245 283 297 311 316 314 287 267 274 283 292 292 300 302 304 277 281 276 270 251 244 228 215 214 218 219 200 201 209 194
209 231 263 286 300 318 319 330 325 301 296 294 293 284 283 292 310 284 283 275 268 244 235 224 214 216 210 211 192 198 203 184
222 244 267 282 313 320 323 324 327 327 319 317 298 279 279 276 293 291 286 278 256 236 224 217 219 214 199 191 191 191 199 194
235 257 271 294 313 316 319 324 318 317 320 323 303 286 278 275 272 288 282 277 259 232 222 212 211 201 204 192 189 200 200 199
225 250 262 283 272 285 303 314 326 314 318 331 327 299 292 272 264 269 271 275 268 242 221 210 200 195 202 199 197 201 200 198
210 225 246 272 286 284 303 332 326 316 321 330 336 327 299 278 262 251 257 265 278 251 207 208 201 195 197 201 204 216 202 191
214 222 237 262 275 294 311 332 329 329 321 323 341 345 319 275 257 233 240 251 246 210 193 195 199 203 203 195 181 188 195 182
211 217 243 266 291 299 311 325 333 340 324 314 325 335 341 306 246 228 223 228 206 204 191 190 188 192 187 178 173 173 177 179
201 207 219 250 269 299 304 319 327 334 331 314 314 329 327 311 248 209 209 207 183 183 187 184 197 189 190 178 174 163 150 154
195 193 204 221 258 303 322 319 322 323 328 336 306 334 339 331 186 189 181 172 168 181 177 195 191 197 183 182 177 165 142 168
190 186 193 218 259 273 321 315 335 349 341 341 307 332 358 8 149 167 161 156 154 153 170 175 175 189 186 184 183 189 183 168